Погода в Бергамо

Италия     45°41′46″N   9°40′05″E
темп.,
°C
ветер,
м/с
пор.,
м/с
влажн.,
%
обл.,
%
осадки,
мм/ч
давл.,
гПа
погр.,
м
14 августа, вс
вс1423:00+18ссв22630 0.0 101530
02:00+16с22640 0.0 101529
05:00+16ссв326296 0.0 101241
08:00+18с116234 0.0 101257
11:00+24ююз114063 0.0 1012857
14:00+26юз223591 0.0 10101431
17:00+28ю0132100 0.0 10081460
20:00+22ссв2251100 0.0 100722
15 августа, пн
пн1523:00+20ссв3252100 0.0 100835
02:00+18ссв2268100 0.3 100824
05:00+17ссв3378100 0.2 100846
08:00+19ссв237661 0.3 100879
11:00+25юз11455 0.0 1008988
14:00+28ююз22362 0.0 10071825
17:00+28ссз223343 0.0 10051474
20:00+21св336282 0.1 100644
16 августа, вт
вт1623:00+16с4590100 1.9 100979
02:00+16ссв33811 2.0 101044
05:00+16ссв22705 0.0 101031
08:00+19ссв12630 0.0 101170
11:00+25ю11500 0.0 1012832
14:00+28ююз22420 0.1 10121727
17:00+29з123656 0.2 10102559
20:00+23ссв325916 0.2 101032
17 августа, ср
ср1723:00+19ссв327757 0.6 101332
02:00+18с33902 3.2 101344
05:00+17ссв32911 3.3 101336
08:00+19ссв22870 3.4 101340
11:00+24ю1163100 1.0 1014522
14:00+28вюв11458 1.4 10131201
17:00+27ююз224286 0.0 10121604
20:00+21св35716 0.2 1011119
18 августа, чт
чт1823:00+17с349169 1.9 101351
02:00+16ссв349213 3.8 101356
05:00+16с339199 0.4 101248
08:00+18св128970 0.8 101246
11:00+23ю226013 0.1 1012685
14:00+25всв126137 2.6 10101071
17:00+23ссв227441 2.8 1009280
20:00+20ссв228267 6.4 100817